Weather History for KDSM - August, 2014

Change the Weather History Date:

Tuesday, August 12, 2014

  Actual Average Record
Temperature  
Mean Temperature 69 °F 75 °F  
Max Temperature 80 °F 84 °F 101 °F (1936)
Min Temperature 58 °F 66 °F 48 °F (1964)
Degree Days  
Heating Degree Days 0 0  
Month to date heating degree days 0 0  
Since 1 June heating degree days 2 18  
Since 1 July heating degree days 2 1  
Cooling Degree Days 4 10  
Month to date cooling degree days 102 127  
Year to date cooling degree days 742 773  
Since 1 June cooling degree days 611 697  
Growing Degree Days 18 (Base 50)    
Moisture  
Dew Point 54 °F    
Average Humidity 60    
Maximum Humidity 80    
Minimum Humidity 39    
Precipitation  
Precipitation 0.00 in 0.14 in 3.06 in (1932)
Month to date precipitation 1.89 1.61  
Year to date precipitation 22.90 24.20  
Snow  
Snow 0.00 in 0.00 in - ()
Month to date snowfall 0.0 0.0  
Since 1 June snowfall 0.0 0.0  
Since 1 July snowfall 0.0 0.0  
Snow Depth 0.00 in    
Sea Level Pressure  
Sea Level Pressure 30.05 in    
Wind  
Wind Speed 9 mph (NNW)    
Max Wind Speed 18 mph    
Max Gust Speed 23 mph    
Visibility 10 miles    
Events      
T = Trace of Precipitation, MM = Missing Value Source: NWS Daily Summary

Daily Weather History Graph

Daily Weather History Graph

Search for Another Location

Airport or City:

Trip Planner

Search our weather history database for the weather conditions in past years. The results will help you decide how hot, cold, wet, or windy it might be!

Date:

Astronomy

Aug. 12, 2014 Rise Set
Actual Time 6:20 AM CDT 8:18 PM CDT
Civil Twilight 5:50 AM CDT 8:48 PM CDT
Nautical Twilight 5:13 AM CDT 9:24 PM CDT
Astronomical Twilight 4:33 AM CDT 10:04 PM CDT
Moon 9:23 PM CDT (8/12) 8:41 AM CDT (8/12)
Length of Visible Light 14h 58m
Length of Day
13h 57m
Waning Gibbous, 94% of the Moon is Illuminated
Aug 12
Waning Gibbous
Aug 17
Last Quarter
Aug 25
New
Sep 2
First Quarter
Sep 8
Full

Hourly Weather History & Observations

Time (CDT) Temp. Dew Point Humidity Pressure Visibility Wind Dir Wind Speed Gust Speed Precip Events Conditions
12:54 AM 64.0 °F 54.0 °F 70% 30.03 in 10.0 mi NW 8.1 mph - N/A   Clear
1:54 AM 62.1 °F 54.0 °F 75% 30.03 in 10.0 mi NW 10.4 mph - N/A   Clear
2:54 AM 61.0 °F 53.1 °F 75% 30.02 in 10.0 mi NNW 9.2 mph - N/A   Clear
3:54 AM 60.1 °F 53.1 °F 78% 30.03 in 10.0 mi NNW 11.5 mph - N/A   Clear
4:54 AM 59.0 °F 52.0 °F 78% 30.04 in 10.0 mi NNW 11.5 mph - N/A   Clear
6:54 AM 57.9 °F 52.0 °F 81% 30.06 in 10.0 mi NNW 10.4 mph - N/A   Partly Cloudy
7:54 AM 60.1 °F 53.1 °F 78% 30.07 in 10.0 mi NNW 8.1 mph - N/A   Scattered Clouds
8:54 AM 64.0 °F 55.0 °F 73% 30.08 in 10.0 mi NW 8.1 mph - N/A   Partly Cloudy
9:54 AM 68.0 °F 57.0 °F 68% 30.08 in 10.0 mi NW 9.2 mph - N/A   Partly Cloudy
10:54 AM 72.0 °F 59.0 °F 64% 30.08 in 10.0 mi NW 8.1 mph - N/A   Partly Cloudy
12:54 PM 75.9 °F 57.0 °F 52% 30.05 in 10.0 mi NNW 12.7 mph - N/A   Scattered Clouds
1:54 PM 77.0 °F 54.0 °F 45% 30.05 in 10.0 mi North 13.8 mph 18.4 mph N/A   Partly Cloudy
2:54 PM 75.9 °F 54.0 °F 46% 30.04 in 10.0 mi NNW 10.4 mph 23.0 mph N/A   Partly Cloudy
3:54 PM 78.1 °F 54.0 °F 43% 30.04 in 10.0 mi North 8.1 mph - N/A   Partly Cloudy
4:54 PM 79.0 °F 52.0 °F 39% 30.03 in 10.0 mi North 15.0 mph 19.6 mph N/A   Partly Cloudy
5:54 PM 78.1 °F 53.1 °F 42% 30.03 in 10.0 mi North 11.5 mph - N/A   Partly Cloudy
6:54 PM 75.9 °F 51.1 °F 42% 30.03 in 10.0 mi NNW 11.5 mph - N/A   Partly Cloudy
7:54 PM 73.9 °F 51.1 °F 45% 30.03 in 10.0 mi NNW 6.9 mph - N/A   Clear
8:54 PM 70.0 °F 52.0 °F 53% 30.04 in 10.0 mi NW 3.5 mph - N/A   Clear
9:54 PM 68.0 °F 53.1 °F 59% 30.05 in 10.0 mi NNW 3.5 mph - N/A   Clear
10:54 PM 64.9 °F 54.0 °F 68% 30.06 in 10.0 mi Calm Calm - N/A   Clear
11:54 PM 63.0 °F 55.0 °F 75% 30.06 in 10.0 mi Calm Calm - N/A   Clear